AO-07 1 07530U 74089B 16273.53414553 -.00000041 00000-0 19456-4 0 9997 2 07530 101.5885 241.7982 0012355 106.9114 14.5617 12.53623341916196 FO-29 1 24278U 96046B 16272.98927349 -.00000055 00000-0 -16802-4 0 9990 2 24278 98.5820 184.6121 0349434 293.9583 62.5335 13.53070977993553 RS-22 1 27939U 03042A 16273.82570539 .00000299 00000-0 62335-4 0 9990 2 27939 97.9039 61.5589 0012404 338.5121 158.5514 14.66459013695151 AO-73 1 39444U 13066AE 16273.13227627 .00000762 00000-0 10157-3 0 9991 2 39444 97.6699 322.2323 0059699 42.2816 318.2977 14.81186526152962 EO-79 1 40025U 14033R 16273.68793249 .00000901 00000-0 10381-3 0 9995 2 40025 97.9194 179.0755 0014147 81.6257 278.6563 14.88134426123747 XW-2A 1 40903U 15049E 16273.80929039 .00005606 00000-0 15578-3 0 9990 2 40903 97.4425 290.2578 0017295 117.8354 242.4645 15.37140019 57623 XW-2C 1 40906U 15049H 16273.81330179 .00002437 00000-0 13785-3 0 9992 2 40906 97.4547 278.6625 0016678 41.0635 319.1849 15.13892621 56835 LILACSAT-2 1 40908U 15049K 16273.83434345 .00001377 00000-0 82012-4 0 9998 2 40908 97.4618 278.4974 0017342 35.2788 324.9587 15.12728568 56801 UO-11 1 14781U 84021B 16273.09190537 .00000261 00000-0 38614-4 0 9994 2 14781 97.7379 321.8506 0007973 344.8045 15.2929 14.82798907751651 LO-19 1 20442U 90005G 16273.04569380 .00000040 00000-0 30749-4 0 9991 2 20442 98.5485 206.5657 0011360 193.9877 166.0994 14.32831224394224 AO-27 1 22825U 93061C 16273.41262777 .00000027 00000-0 27901-4 0 9995 2 22825 98.7718 230.3651 0008837 20.4275 339.7259 14.29969686200131 IO-26 1 22826U 93061D 16273.43337272 .00000031 00000-0 29445-4 0 9991 2 22826 98.7661 230.4982 0009197 11.2488 348.8898 14.30295711200303 GO-32 1 25397U 98043D 16273.51297593 .00000002 00000-0 19485-4 0 9993 2 25397 98.5761 215.7904 0002240 60.9426 299.1977 14.23603623946707 NO-44 1 26931U 01043C 16273.09967928 .00000002 00000-0 32667-4 0 9998 2 26931 67.0521 44.8173 0005337 266.8680 93.1811 14.30426165783008 SO-50 1 27607U 02058C 16273.15736908 .00000163 00000-0 44260-4 0 9995 2 27607 64.5554 203.1741 0056264 193.3192 166.6429 14.75215736740604 CO-55 1 27844U 03031E 16273.45216442 .00000120 00000-0 74155-4 0 9998 2 27844 98.6936 280.2458 0010220 27.6640 332.5080 14.21979851687264 CO-57 1 27848U 03031J 16273.31159476 .00000099 00000-0 65293-4 0 9998 2 27848 98.7032 280.2492 0010285 36.2531 323.9342 14.21602675687138 CO-65 1 32785U 08021C 16273.15744819 .00000646 00000-0 76583-4 0 9993 2 32785 97.5945 303.0047 0012081 318.0610 41.9681 14.87673105456088 PRISM 1 33493U 09002B 16273.67991311 .00000944 00000-0 91693-4 0 9998 2 33493 98.2028 138.6286 0014286 219.9813 140.0361 14.95164532416849 TISAT-1 1 36799U 10035E 16273.82121558 .00001284 00000-0 13901-3 0 9996 2 36799 98.0391 25.7755 0013887 101.8006 258.4769 14.90000447337003 ALMASAT-1 1 38078U 12006B 16272.95303314 .00027833 37350-5 35037-3 0 9998 2 38078 069.4471 108.6646 0363529 311.9526 045.1170 15.08969410245209 DUCHIFAT-1 1 40021U 14033M 16273.68510823 .00001348 00000-0 14736-3 0 9990 2 40021 97.9231 180.4106 0014739 79.3770 280.9106 14.89484814123819 NANOSATCBR1 1 40024U 14033Q 16273.70819599 .00001108 00000-0 12399-3 0 9995 2 40024 97.9201 179.6990 0013964 79.7310 280.5480 14.88869577123782 DTUSAT-2 1 40030U 14033W 16273.69509172 .00000873 00000-0 10171-3 0 9997 2 40030 97.9169 178.4446 0013585 76.3026 283.9701 14.87767908123711 ANTELSAT 1 40034U 14033AA 16273.67552356 .00000459 00000-0 76365-4 0 9999 2 40034 97.8881 159.1768 0060472 50.7936 309.8623 14.73480317122565 MET-2/21 1 22782U 93055A 16273.06785341 .00000050 00000-0 31455-4 0 9993 2 22782 82.5489 230.7869 0023947 83.5934 325.2858 13.83791565165587 NOAA-15 1 25338U 98030A 16273.50782903 .00000065 00000-0 46372-4 0 9991 2 25338 98.7855 277.8789 0009630 240.5614 119.4605 14.25755437955854 NOAA-18 1 28654U 05018A 16273.48911347 .00000043 00000-0 48607-4 0 9991 2 28654 99.1979 283.1348 0015308 83.3800 276.9112 14.12306832585454 NOAA-19 1 33591U 09005A 16273.45842529 .00000136 00000-0 98858-4 0 9995 2 33591 99.0524 231.1467 0013033 287.6063 72.3685 14.12110734393851 HUBBLE 1 20580U 90037B 16272.89991898 .00001103 00000-0 57741-4 0 9996 2 20580 28.4702 293.7571 0002544 240.8177 137.3465 15.08515710250782 ISS 1 25544U 98067A 16273.99933946 .00005788 00000-0 95080-4 0 9995 2 25544 51.6434 255.2004 0006578 20.7587 54.7679 15.53985022 21290 CO-58 1 28895U 05043F 16273.10622784 .00000349 00000-0 76277-4 0 9992 2 28895 97.8404 81.8709 0015626 248.2450 111.7090 14.63261705582306 AAUSAT2 1 32788U 08021F 16273.10361689 .00001148 00000-0 11439-3 0 9997 2 32788 97.5936 312.4989 0010573 285.0367 74.9682 14.93424254456708 DO-64 1 32789U 08021G 16273.15333196 .00003956 00000-0 29227-3 0 9998 2 32789 97.5972 330.5323 0010977 267.1191 92.8778 15.03755685457620 CO-66 1 32791U 08021J 16273.08986747 .00000888 00000-0 97708-4 0 9990 2 32791 97.5945 306.4543 0012200 304.8451 55.1620 14.89914809456263 RS-30 1 32953U 08025A 16273.83410231 .00000007 00000-0 -18913-4 0 9992 2 32953 82.5049 41.5624 0019842 133.1478 227.1264 12.43071885379074 JUGNU 1 37839U 11058B 16273.28909131 .00000351 00000-0 45073-4 0 9999 2 37839 19.9608 232.3902 0019003 186.9853 327.6430 14.12554885256763 SRMSAT 1 37841U 11058D 16273.17697053 .00000339 00000-0 41459-4 0 9997 2 37841 19.9717 269.3880 0012091 94.2991 344.3623 14.10552170256387 AO-71 1 37854U 11061E 16273.18939286 .00005980 00000-0 33114-3 0 9998 2 37854 101.6983 8.2856 0171762 126.7813 234.9300 15.02812292267714 HRBE 1 37855U 11061F 16273.14988945 .00007280 00000-0 39427-3 0 9999 2 37855 101.7101 6.2199 0184636 131.9220 229.7899 15.01731035267595 HORYU-2 1 38340U 12025D 16273.02517483 .00000596 00000-0 96352-4 0 9996 2 38340 98.3640 261.9660 0012717 46.7779 313.4488 14.75129145234782 RS-40 1 38735U 12041C 16273.81704009 .00000042 00000-0 23669-3 0 9997 2 38735 82.4734 126.5471 0016059 234.9744 124.9829 12.42573513189350 BEESAT-3 1 39134U 13015E 16272.60365575 .00003941 00000-0 21050-3 0 9993 2 39134 64.8729 349.9726 0016543 307.9113 52.0516 15.16515623189799 BEESAT-2 1 39136U 13015G 16273.50096899 .00003651 00000-0 20954-3 0 9995 2 39136 64.8740 354.3633 0015793 307.4872 52.4816 15.14076638189797 ZACUBE-1 1 39417U 13066B 16273.09467699 .00000630 00000-0 86418-4 0 9999 2 39417 97.6687 321.4673 0060563 44.6450 315.9616 14.80496432154145 TRITON-1 1 39427U 13066M 16273.49893070 .00000575 00000-0 99953-4 0 9996 2 39427 97.6595 300.1026 0116143 103.4212 257.9970 14.67270716152816 GOMX-1 1 39430U 13066Q 16273.59287495 .00000376 00000-0 77333-4 0 9996 2 39430 97.6669 286.5870 0152897 145.5430 215.5797 14.58678402151945 LO-74 1 39440U 13066AA 16273.33575943 .00000649 00000-0 97997-4 0 9998 2 39440 97.6632 313.0149 0082378 66.7544 294.2313 14.75251883153632 SPROUT 1 39770U 14029E 16273.02889840 .00001906 00000-0 22608-3 0 9997 2 39770 97.8736 9.1126 0010701 103.7715 256.4692 14.85649799127354 EO-80 1 40032U 14033Y 16273.72585091 .00000851 00000-0 99415-4 0 9992 2 40032 97.9177 178.4840 0013538 76.5910 283.6815 14.87702102123710 VELOX-1 1 40057U 14034E 16273.81482776 .00000614 00000-0 95104-4 0 9994 2 40057 98.1937 4.1825 0011276 165.9014 194.2520 14.76835375121329 DAURIA DX 1 1 40071U 14037C 16273.80473165 .00000298 00000-0 45972-4 0 9990 2 40071 98.3322 8.7489 0008504 161.4140 198.7397 14.80880395120431 UKUBE-1 1 40074U 14037F 16273.78210228 .00000653 00000-0 87099-4 0 9990 2 40074 98.3373 11.3139 0005030 158.0977 202.0467 14.83205316120572 HODOYOSHI-1 1 40299U 14070B 16273.77385505 .00001759 00000-0 80906-4 0 9994 2 40299 97.4253 354.2686 0012068 288.6953 185.7456 15.21614648105334 CHUBUSAT-1 1 40300U 14070C 16273.82399878 .00001997 00000-0 95115-4 0 9993 2 40300 97.4199 352.2504 0019579 294.9473 183.2051 15.20151967105225 QSAT-EOS 1 40301U 14070D 16273.81185052 .00004104 00000-0 18253-3 0 9990 2 40301 97.4141 351.7177 0027278 292.8205 184.5361 15.21730875105217 FIREBIRD FU3 1 40377U 15003B 16273.83075035 .00010136 00000-0 44536-3 0 9996 2 40377 99.0971 40.6323 0142182 143.8885 217.2047 15.13441026 91607 FIREBIRD FU4 1 40378U 15003C 16273.82638967 .00009898 00000-0 43448-3 0 9999 2 40378 99.0974 40.6462 0142393 143.8273 217.2687 15.13457595 91608 GRIFEX 1 40379U 15003D 16273.82425892 .00007609 00000-0 35067-3 0 9997 2 40379 99.0979 39.4548 0146937 148.3839 212.6319 15.11471832 91532 NO-84 1 40654U 15025D 16273.39410284 .00015472 00000-0 32158-3 0 02378 2 40654 055.0000 317.5946 0198746 333.4132 025.6833 15.27542050039954 NO-83 1 40655U 15025E 16273.39296517 .00022458 00000-0 41474-3 0 02597 2 40655 054.9865 307.3393 0178382 338.7435 020.6404 15.33482394040078 DEORBITSAIL 1 40719U 15032E 16273.17290710 .00001016 00000-0 15592-3 0 9991 2 40719 98.0035 163.8263 0015204 263.6443 96.3035 14.75701450 65828 NUDT-PHONESAT 1 40900U 15049B 16273.76378127 .00006962 00000-0 34812-3 0 9996 2 40900 97.4457 279.6923 0016390 57.5272 302.7544 15.17633600 56936 XW-2D 1 40907U 15049J 16273.81106342 .00002528 00000-0 14266-3 0 9992 2 40907 97.4514 278.4989 0016013 39.7607 320.4795 15.13953350 56839 XW-2F 1 40910U 15049M 16273.80912171 .00003531 00000-0 19451-3 0 9996 2 40910 97.4542 278.8045 0016985 38.4010 321.8428 15.14540722 56725 XW-2B 1 40911U 15049N 16273.81187744 .00002472 00000-0 13964-3 0 9994 2 40911 97.4561 278.7343 0015908 39.9881 320.2519 15.13930184 56732 DCBB 1 40912U 15049P 16273.75628988 .00003342 00000-0 17426-3 0 9992 2 40912 97.4544 279.8315 0017311 33.2014 51.9462 15.16527938 56805 TW-1C 1 40926U 15051B 16273.86574935 .00013268 00000-0 35280-3 0 9990 2 40926 97.2672 309.7029 0014602 39.5285 47.4922 15.38250351 56845 TW-1A 1 40928U 15051D 16273.79360384 .00005141 00000-0 15786-3 0 9995 2 40928 97.2622 308.1601 0015424 55.8187 358.3919 15.34050942 56756 IO-86 1 40931U 15052B 16272.56474379 .00000760 00000-0 16957-4 0 9998 2 40931 6.0010 298.0782 0013008 142.2654 217.8349 14.76484399 54231 GomX-3 1 40949U 98067HA 16273.86080667 .00268430 41901-4 47761-3 0 9996 2 40949 51.6214 205.8435 0002952 111.4973 248.6352 16.01323877 56692 LQSat 1 40958U 15057A 16273.79515068 .00000110 00000-0 24998-4 0 9992 2 40958 98.0073 347.2705 0018146 175.7819 184.3545 14.72902586 52787 AO-85 1 40967U 15058D 16273.32624280 .00000420 00000-0 65147-4 0 02717 2 40967 064.7786 290.0416 0191017 171.7842 188.6473 14.75173123038638 ATHENOXAT-1 1 41168U 15077C 16273.38668955 .00003797 00000-0 18441-3 0 9996 2 41168 14.9948 273.1990 0012389 4.5525 28.4055 15.10455938 43532 ChubuSat-2 1 41338U 16012B 16273.50068506 .00000923 00000-0 66530-4 0 9996 2 41338 31.0040 327.6285 0014021 359.2248 0.8364 14.99504876 33823 ChubuSat-3 1 41339U 16012C 16273.53252364 .00000706 00000-0 48961-4 0 9994 2 41339 31.0122 327.0128 0013682 5.1208 354.9619 14.99727125 33808 Horyu-4 1 41340U 16012D 16273.53982023 .00001396 00000-0 10220-3 0 9990 2 41340 31.0059 326.0148 0014355 11.6009 348.4955 15.00211623 33837 OUFTI-1 1 41458U 16025C 16273.52129647 .00004727 00000-0 26126-3 0 9991 2 41458 98.2144 289.9952 0179266 79.9838 282.1594 15.01693201 23432 e-st@r-II 1 41459U 16025D 16273.52312658 .00004445 00000-0 24645-3 0 9999 2 41459 98.2145 289.9872 0179136 80.1096 282.0325 15.01640622 23431 AAUSAT4 1 41460U 16025E 16273.83385123 .00006555 00000-0 36079-3 0 9990 2 41460 98.2090 290.3691 0176293 78.0674 284.0295 15.02032227 23486 MinXSS 1 41474U 98067HU 16271.95676880 .00054432 00000-0 58967-3 0 9992 2 41474 51.6407 261.2341 0002234 117.7599 242.4142 15.62872542 20973 CADRE 1 41475U 98067HV 16273.78022532 .00116723 00000-0 10167-2 0 9996 2 41475 51.6366 250.1336 0002975 94.1812 265.9525 15.68140559 21289 NODES 1 1 41477U 98067HX 16273.37933670 .00040057 00000-0 47244-3 0 9990 2 41477 51.6377 254.9648 0002438 110.2948 249.8308 15.60942651 21099 NODES 2 1 41478U 98067HY 16273.38305655 .00039091 00000-0 46250-3 0 9990 2 41478 51.6376 254.9884 0002379 108.9544 251.1707 15.60872052 21097 LO-87 1 41557U 16033B 16273.80214380 .00003789 00000-0 15061-3 0 9993 2 41557 97.4903 347.1410 0014069 199.9794 305.2721 15.25843520 18705 NuSat2 1 41558U 16033C 16273.81240247 .00003705 00000-0 14796-3 0 9998 2 41558 97.4933 347.1636 0013654 197.8067 302.0793 15.25705705 18704 Lapan A3 1 41603U 16040E 16273.81180481 .00000673 00000-0 35308-4 0 9994 2 41603 97.5007 332.3341 0012127 263.3199 161.0029 15.19138321 15121 Swayam 1 41607U 16040J 16273.40128703 .00004803 00000-0 22941-3 0 9999 2 41607 97.4987 331.9039 0013228 266.0510 93.9212 15.19445160 14982 OBJECT A 1 41783U 16059A 16273.78265153 -.00000296 00000-0 -49916-4 0 9992 2 41783 98.2780 331.2083 0041534 262.3309 232.6302 14.60730362 539 OBJECT B 1 41784U 16059B 16273.70461020 .00000490 00000-0 10432-3 0 9990 2 41784 98.2061 331.2360 0030710 256.3067 218.0667 14.63112604 480 Pratham 1 41785U 16058C 16273.70385263 .00000236 00000-0 55179-4 0 9990 2 41785 98.2064 331.2389 0030452 256.4181 215.3658 14.63224437 484 OBJECT D 1 41786U 16059D 16273.77300866 .00714965 00000-0 12862 0 0 9993 2 41786 98.1952 331.3211 0026994 263.7093 213.3702 14.63938446 495 OBJECT E 1 41787U 16059E 16273.70372953 .00000265 00000-0 60346-4 0 9999 2 41787 98.2065 331.2389 0029405 256.1344 217.6954 14.63441212 487 OBJECT F 1 41788U 16059F 16273.70559420 .00000564 00000-0 11733-3 0 9993 2 41788 98.2066 331.2381 0028509 258.6686 227.1994 14.63619690 488 OBJECT G 1 41789U 16059G 16273.14415428 .00000850 00000-0 17101-3 0 9994 2 41789 98.2079 330.6857 0027193 253.3961 159.4261 14.63952447 417 OBJECT H 1 41790U 16059H 16273.31231568 -.00000033 00000-0 25055-5 0 9999 2 41790 98.1060 327.8380 0010333 225.2255 198.9152 14.50098024 458 OBJECT J 1 41791U 16059J 16273.75206038 -.00000006 00000-0 85274-5 0 9991 2 41791 98.2061 331.2840 0032417 256.3325 103.4266 14.62762483 526 OBJECT K 1 41792U 16059K 16273.41959556 -.00000044 00000-0 10953-5 0 9999 2 41792 98.2066 330.9646 0026739 257.0054 167.6479 14.64040707 448 /EX